Theta_e
313 313 313 313 313 312 313 313 313 313 313 314 314 314 314 315 315 314 314 314 315 315 315 314 314 314 314 314 314 314 314 312 311 309 309 312 316 322 321 318 321 322 324 314 313 312 310 310 309 309 307 307 307 307 311 310 310 307 301 300 298 300 299 302 301 302 304 303 304 305 305 305 307 322 327 332 330 330 331 331 332 335 337 339 339 342 340 339
313 313 313 312 312 312 312 313 313 313 313 314 314 313 314 314 315 315 314 314 315 315 314 314 314 314 314 313 314 314 312 311 310 310 311 319 320 321 324 324 327 325 324 312 310 309 308 307 308 307 306 304 311 305 311 306 310 303 301 300 298 301 302 305 304 305 304 303 305 305 305 305 304 308 320 319 322 326 327 329 332 332 334 337 338 338 338 338
312 313 312 313 312 312 312 312 313 312 313 313 314 313 313 314 314 314 314 315 315 314 314 314 314 314 313 313 314 314 312 310 311 310 316 324 322 321 325 327 323 323 321 310 311 310 308 308 308 306 305 304 306 305 307 307 307 305 302 299 300 304 304 304 305 304 305 305 304 304 305 305 305 308 313 314 316 321 318 323 329 329 330 332 335 336 336 336
312 312 312 312 312 312 312 312 312 312 312 313 314 313 313 314 314 314 314 315 315 314 313 314 313 313 314 313 314 314 312 309 307 313 323 325 322 321 324 328 327 324 320 312 311 310 310 310 308 307 304 303 305 308 303 308 303 305 302 300 302 304 302 304 305 306 306 305 304 304 305 304 305 307 309 311 312 313 313 318 321 327 331 333 334 335 337 336
312 312 312 312 312 312 312 312 312 312 312 312 313 313 313 314 314 314 314 314 314 314 314 314 313 313 313 314 312 314 310 305 307 318 328 326 325 324 325 329 326 317 315 312 310 309 309 308 306 305 304 301 305 305 304 307 307 306 302 303 304 304 301 305 305 306 305 305 304 304 303 303 307 307 308 310 309 308 313 317 324 327 335 334 333 335 336 335
312 312 312 312 312 312 312 311 311 311 311 312 312 312 313 314 313 313 313 313 314 314 314 314 313 312 313 314 313 313 308 295 310 315 336 329 324 325 326 328 327 316 314 310 308 307 307 306 305 303 302 302 302 300 304 306 307 300 304 304 305 305 302 305 305 305 304 304 304 303 305 306 304 304 306 309 311 316 323 324 326 330 336 337 337 336 335 335
311 312 312 312 312 312 312 311 311 311 312 312 312 312 313 314 313 313 313 313 313 313 314 313 313 313 314 313 314 310 307 304 310 320 332 329 325 326 329 327 324 314 312 308 307 306 306 305 304 302 301 302 303 302 305 305 306 302 301 304 303 305 303 305 305 305 305 303 303 305 306 303 304 302 307 306 311 321 323 322 323 333 337 338 335 336 336 335
311 311 312 312 312 312 311 312 312 312 312 311 312 313 313 313 313 314 314 313 313 312 313 313 313 313 312 312 310 309 304 301 314 331 332 328 325 325 326 316 313 312 310 308 307 305 306 304 302 304 302 300 303 302 305 303 304 301 300 303 304 304 304 305 306 305 304 304 306 305 303 303 305 304 305 305 314 322 323 326 328 334 336 336 335 335 335 334
311 311 311 311 311 312 311 311 311 311 311 312 311 312 312 312 313 313 313 312 312 312 312 313 313 313 312 311 309 300 299 315 322 324 330 324 319 322 320 314 314 310 309 309 308 307 305 304 304 305 300 300 304 302 304 301 299 302 302 304 304 303 304 305 305 304 304 305 305 303 303 305 305 306 304 308 322 327 330 329 331 335 334 333 334 335 335 334
311 311 311 311 311 311 311 311 311 311 311 311 311 311 312 312 312 312 312 312 311 312 313 313 313 313 311 310 309 299 306 319 322 328 328 322 320 320 317 314 313 310 308 308 308 307 304 305 305 306 306 303 304 302 304 302 301 304 303 304 303 303 304 304 303 304 305 304 305 302 303 303 305 303 301 317 326 329 329 330 333 334 332 332 333 335 336 335
311 311 311 311 311 311 311 311 311 311 311 311 311 311 311 311 311 311 312 312 312 312 313 312 314 313 312 309 303 298 309 319 319 325 326 325 320 315 312 313 313 310 309 308 307 308 307 307 309 308 305 302 303 302 302 302 304 302 303 302 302 302 303 304 304 303 305 303 305 304 303 303 304 304 303 321 328 329 328 329 331 332 330 332 334 335 335 336
311 311 311 311 311 311 311 311 311 311 312 311 311 310 310 310 311 311 312 312 312 312 312 313 312 314 311 308 304 304 316 315 319 322 324 321 314 312 313 314 313 312 311 307 308 309 308 309 309 306 300 306 299 303 301 304 303 302 302 298 300 302 301 303 302 303 304 303 305 305 302 300 303 301 307 323 326 329 328 328 329 330 330 332 333 333 334 334
310 310 310 311 311 310 311 311 311 311 311 311 311 310 310 310 310 311 311 311 312 312 312 311 313 314 311 305 309 313 311 315 317 317 322 321 316 314 315 316 315 314 312 309 308 309 308 310 310 306 306 304 303 298 304 305 303 303 302 300 299 299 299 302 304 304 302 304 304 304 294 298 302 304 314 327 326 327 327 327 328 329 330 331 332 331 332 335
310 310 310 310 310 310 310 311 311 310 310 311 311 311 310 309 310 310 311 310 312 312 313 314 314 311 311 306 309 311 314 317 316 316 317 318 313 311 313 314 314 313 313 311 310 310 308 311 310 308 308 305 302 306 302 302 303 298 300 301 297 297 296 303 303 303 301 303 303 304 295 299 302 305 318 325 327 325 324 327 328 328 329 331 330 330 330 333
310 310 310 310 310 310 310 310 310 310 310 310 311 311 310 309 310 310 311 311 311 312 311 312 313 311 309 310 315 319 323 320 315 314 317 313 311 309 310 312 311 311 312 310 308 308 309 310 309 304 303 306 306 302 299 300 300 300 296 294 297 296 298 301 303 303 300 302 304 302 296 298 303 309 320 326 325 323 324 326 327 328 328 329 329 329 329 331
310 310 310 310 310 310 310 310 310 310 310 310 310 310 310 310 310 311 311 311 312 312 314 312 311 309 307 304 310 322 317 310 312 317 317 315 312 307 310 310 310 310 310 309 310 309 308 308 304 305 304 303 301 299 298 297 297 299 296 296 295 296 297 298 301 304 304 303 303 302 297 300 301 310 321 325 325 324 324 325 327 327 327 328 328 329 329 330
309 309 309 310 309 309 309 310 310 310 310 309 309 310 310 310 307 308 311 312 312 313 313 309 312 312 305 309 313 307 307 311 315 316 316 316 313 309 309 308 306 307 309 308 308 308 307 305 306 304 304 301 301 300 295 294 294 295 297 296 298 295 297 296 301 304 304 303 300 302 299 300 304 308 318 324 324 322 322 325 326 326 325 328 328 328 328 329
309 309 309 309 309 309 309 309 310 310 309 309 308 309 310 311 311 310 310 313 315 314 313 314 311 308 303 311 302 306 309 310 311 314 315 315 311 309 308 305 307 306 305 304 305 303 306 303 304 299 301 301 300 298 293 290 294 294 295 295 296 297 298 297 297 301 303 303 301 302 301 301 303 309 315 321 324 321 322 324 325 325 324 325 327 327 328 328
309 309 309 309 309 309 309 309 309 309 309 308 308 309 310 311 312 314 311 311 309 308 305 306 306 299 296 301 306 307 309 311 312 313 310 310 309 309 308 308 306 303 301 301 302 303 304 304 303 299 295 297 297 297 296 297 297 296 297 296 297 295 295 297 301 303 303 301 300 301 299 300 304 308 316 320 323 322 322 325 325 324 323 324 325 326 327 327
309 309 309 309 309 309 309 309 309 309 309 308 312 312 312 311 311 309 310 310 308 307 306 307 309 307 307 307 306 312 314 313 308 311 312 310 308 306 306 305 303 305 303 300 301 304 304 298 295 295 297 298 300 301 301 299 299 298 298 297 297 297 298 300 301 303 303 301 301 302 302 301 302 309 317 321 323 322 321 322 324 324 324 323 324 325 326 328
308 308 308 308 309 309 309 309 309 309 308 308 309 308 304 305 301 301 306 309 313 312 310 309 310 309 307 309 310 309 307 307 310 309 311 312 309 306 302 304 301 300 301 302 302 306 303 296 297 299 300 301 301 302 301 301 300 298 297 297 296 297 297 300 300 302 305 302 300 302 301 302 303 312 318 321 320 318 320 321 323 323 324 323 324 325 326 329
308 308 308 308 308 308 309 309 309 309 307 309 307 308 307 308 310 312 308 302 309 312 312 311 311 309 313 312 312 312 310 306 307 308 312 310 306 302 302 302 300 297 302 302 302 299 297 295 299 301 304 303 302 302 301 300 299 299 297 297 297 297 299 301 301 303 304 303 301 301 299 300 307 313 317 318 319 320 322 322 323 323 323 323 324 324 326 327
308 308 308 308 308 308 308 309 309 305 309 306 307 308 306 313 314 313 311 306 304 311 309 309 307 308 309 312 313 312 305 303 303 307 308 309 304 303 303 300 300 300 300 301 297 297 294 296 301 302 303 301 301 301 300 300 300 298 297 297 295 299 296 294 302 304 304 303 302 300 299 303 308 317 317 320 320 320 322 322 323 324 323 323 325 325 325 326
308 308 308 308 308 308 308 308 308 307 309 309 306 306 309 313 312 311 310 303 301 305 308 309 309 309 308 307 313 310 305 305 306 305 311 307 302 304 302 301 299 299 297 299 298 297 296 300 304 303 302 300 299 300 299 297 295 299 300 298 297 297 297 299 299 303 304 303 305 301 300 301 305 305 311 318 320 321 321 322 323 324 325 327 328 327 328 327
307 307 307 307 308 308 308 308 307 311 311 310 307 310 312 313 312 313 309 305 304 304 312 309 310 310 311 316 314 307 307 308 307 310 310 308 304 302 301 304 302 297 298 299 298 297 297 303 305 300 299 299 299 298 298 298 294 296 301 301 300 300 299 299 302 300 299 299 302 300 293 294 301 304 305 314 316 316 319 320 320 322 324 325 325 326 327 329
307 307 307 307 307 307 307 307 312 310 304 302 306 312 313 311 311 317 309 298 292 300 305 301 312 304 315 306 310 308 308 302 309 311 310 309 310 303 302 300 301 296 298 298 297 298 298 305 301 300 299 299 298 298 299 300 296 296 298 302 302 300 300 300 300 299 295 294 299 303 294 290 299 301 307 312 313 314 318 319 320 322 323 323 323 324 326 327
307 307 307 307 307 307 305 304 308 306 300 302 311 313 309 310 318 316 303 294 289 301 300 305 307 306 312 309 308 309 293 298 310 311 309 311 305 308 299 298 299 300 301 302 297 294 299 299 299 300 300 299 297 296 301 300 298 295 304 302 301 300 299 300 300 299 297 302 303 302 299 293 293 300 307 311 310 312 315 317 320 321 323 323 325 326 327 327
307 307 307 307 307 305 306 307 305 302 301 309 310 309 309 314 319 317 301 282 283 304 299 302 303 313 310 309 310 303 303 307 300 305 310 309 308 303 301 298 297 297 299 299 290 302 300 299 299 298 298 298 297 299 302 302 299 299 303 302 300 300 301 300 299 299 299 298 294 297 300 294 293 299 304 306 306 310 312 314 316 319 321 324 326 327 328 329
307 307 306 307 306 306 307 307 306 302 307 310 310 308 310 320 316 305 292 280 298 299 309 300 311 308 305 308 305 306 303 306 299 305 309 309 309 305 298 300 300 299 300 299 295 298 301 301 301 300 298 297 300 301 302 302 299 303 304 303 303 302 301 301 299 298 298 294 290 295 299 292 292 298 300 304 304 306 309 312 315 318 319 321 324 327 328 328
307 306 306 306 306 308 308 308 305 308 310 310 308 309 315 316 308 292 285 278 302 293 301 302 302 299 305 301 301 304 302 303 303 304 306 303 304 305 303 305 301 299 297 300 298 299 301 305 304 301 299 301 301 302 302 302 302 303 303 301 300 300 300 300 300 298 296 288 292 297 299 296 289 297 298 299 303 306 307 308 310 311 312 314 319 323 327 326
306 306 306 305 303 307 307 303 308 310 310 311 309 311 314 309 296 288 280 288 299 298 302 300 298 302 300 298 296 302 302 301 301 303 300 304 301 302 302 300 303 298 298 297 297 298 299 301 300 301 304 302 303 299 301 302 303 303 300 298 298 297 299 298 297 298 288 287 295 298 298 299 287 294 300 306 307 309 309 309 311 312 312 313 314 315 321 325
306 306 306 305 306 308 301 300 306 309 311 312 309 309 304 290 295 285 283 299 287 296 297 297 299 300 299 301 298 299 299 301 302 301 299 299 298 297 298 295 297 291 290 293 292 298 297 297 300 302 305 301 300 299 299 301 302 301 300 298 292 289 290 286 291 285 287 286 295 298 298 294 293 301 303 305 308 310 313 313 313 313 313 315 313 313 321 325
305 305 306 307 307 307 307 309 311 312 313 309 304 305 296 287 281 290 290 293 289 300 295 299 298 297 297 297 297 300 302 297 302 301 302 301 298 298 301 299 300 297 289 295 294 293 294 299 299 300 301 303 301 296 296 296 299 298 297 295 291 286 285 282 286 288 289 294 298 297 299 292 297 301 306 307 310 312 314 315 316 315 316 317 317 319 321 323
305 306 308 311 309 310 311 314 312 311 308 308 302 300 294 284 284 296 292 293 293 299 298 297 297 297 297 295 298 299 296 300 300 300 301 299 298 296 298 300 300 298 298 297 291 293 287 289 296 298 296 303 301 300 300 299 299 298 300 297 294 292 288 281 286 283 285 288 294 298 293 289 291 295 305 309 313 315 315 316 317 318 318 318 318 319 320 321
304 307 312 312 310 311 313 312 314 312 309 304 299 295 285 285 290 290 291 293 295 296 295 298 295 295 296 297 299 300 299 296 300 299 298 298 295 297 297 297 299 300 299 292 296 293 292 293 298 301 301 303 299 302 303 301 299 300 301 300 295 292 297 288 290 291 289 289 289 292 291 297 297 304 307 312 314 315 316 317 317 317 318 319 318 318 319 320
305 313 311 311 309 313 313 312 314 312 307 300 294 289 286 291 287 293 292 298 297 293 294 296 295 293 294 296 299 298 300 297 298 298 298 298 299 297 300 300 299 300 298 292 297 290 293 291 299 299 301 300 301 302 302 303 291 298 298 293 296 302 298 291 290 296 289 289 287 294 294 297 302 303 306 310 312 313 315 315 316 316 318 319 317 317 317 319
308 310 309 310 309 312 314 313 311 309 306 299 292 286 294 294 295 294 297 295 296 297 294 288 292 292 292 293 295 297 298 299 299 296 294 299 297 299 298 300 302 301 301 299 296 299 292 291 297 298 296 299 301 301 302 301 302 299 293 297 301 303 301 294 286 288 287 284 286 293 288 292 293 288 304 306 309 311 312 314 315 317 317 316 316 317 318 319
307 309 310 306 308 313 314 313 310 307 300 296 289 291 298 293 298 295 300 298 297 297 294 291 293 293 292 293 294 296 298 295 297 296 295 297 294 300 298 298 301 301 302 303 297 299 298 290 295 298 298 298 300 300 299 300 301 298 296 304 294 288 288 294 290 282 283 282 285 289 292 292 294 294 300 302 305 309 311 313 314 314 315 315 316 316 318 319
308 307 304 305 310 312 313 313 309 302 296 291 289 288 296 296 299 296 299 300 298 296 292 293 291 293 294 293 294 297 298 293 297 296 293 296 292 299 298 299 297 299 300 301 298 300 300 290 293 297 297 298 299 299 291 296 300 300 301 299 301 298 293 289 290 291 290 284 284 285 290 287 296 297 300 303 307 310 311 312 312 313 314 314 315 316 316 318
307 302 301 309 311 312 312 312 306 298 293 287 291 292 298 295 297 300 301 299 296 295 294 293 293 292 293 294 295 293 297 297 297 297 296 298 295 298 298 300 298 298 299 300 298 302 294 300 287 294 298 297 293 297 294 296 294 295 296 295 297 298 300 298 298 292 289 286 286 285 284 289 297 303 304 304 308 311 311 311 312 313 314 315 316 317 316 317
307 302 301 310 311 314 312 308 298 292 290 294 296 294 296 294 297 299 300 301 298 300 296 295 295 292 294 293 293 296 295 296 297 297 297 297 297 293 300 300 300 298 300 298 297 299 293 293 289 293 293 292 294 297 296 297 298 297 296 294 296 294 291 287 286 296 294 290 286 285 284 292 299 305 305 307 309 310 312 312 312 313 315 316 317 317 317 317
304 296 298 310 313 312 308 296 296 298 293 291 291 294 294 301 296 297 298 300 298 297 300 296 296 294 294 293 294 294 295 294 296 296 297 296 299 299 299 300 300 301 299 295 297 302 300 298 294 289 293 294 295 296 298 299 298 297 299 296 299 298 296 291 284 289 293 292 294 292 287 290 302 305 306 306 307 312 313 313 312 314 315 316 317 318 319 318
301 297 306 309 314 310 304 295 298 293 292 294 298 295 298 297 295 297 296 297 295 297 296 295 294 294 295 294 294 294 295 293 295 294 296 298 298 298 298 300 302 300 301 297 298 299 306 292 290 293 295 295 297 298 298 297 297 296 297 299 298 296 297 294 292 294 290 291 288 288 285 291 303 307 309 309 310 313 315 314 313 313 314 316 318 318 319 318
301 300 302 308 313 309 300 289 289 289 292 297 295 295 297 296 296 295 294 296 295 296 294 295 295 296 295 297 296 292 296 289 295 295 295 298 297 300 300 300 302 300 300 298 296 302 291 294 293 289 289 291 292 295 295 297 297 296 296 298 297 296 297 299 297 298 289 292 291 288 283 291 301 308 309 310 310 311 312 313 314 313 314 315 316 317 318 319
302 304 303 304 309 307 296 296 294 291 292 293 293 292 294 294 296 297 297 295 297 296 296 295 296 297 295 297 296 297 297 294 296 297 298 297 297 300 300 301 303 302 304 303 303 300 294 292 292 286 284 281 281 282 285 288 292 295 295 294 294 294 296 295 289 292 286 291 293 288 287 295 301 305 306 309 309 310 311 311 313 314 314 314 315 317 317 318
297 290 297 300 304 303 300 302 299 295 292 293 290 293 294 293 295 297 297 295 296 296 296 295 296 297 296 296 295 294 294 297 295 296 296 296 297 298 299 302 303 304 305 306 304 302 293 295 293 290 288 287 288 290 292 294 293 290 291 294 294 295 297 298 296 290 287 292 291 292 294 294 297 301 303 305 307 306 307 310 310 311 313 314 315 315 316 316
301 293 293 291 300 299 297 298 295 296 292 296 288 293 292 293 294 295 297 294 295 295 295 295 294 294 295 295 295 295 295 295 296 297 295 296 296 297 299 301 303 305 305 303 303 299 291 288 290 291 290 290 292 291 293 294 293 293 292 293 294 295 296 297 291 290 296 292 287 296 298 296 296 299 301 302 304 306 308 309 311 312 312 312 313 314 312 314
293 295 298 298 292 289 291 292 296 293 295 295 291 295 291 291 293 290 295 296 295 297 294 293 294 293 294 295 297 292 294 295 296 291 295 296 295 297 296 299 298 300 302 302 304 300 294 288 289 290 288 291 292 293 294 293 293 293 293 293 293 294 297 293 290 294 297 290 287 296 300 296 296 297 300 301 302 303 304 307 309 311 312 312 312 312 312 312
299 297 297 299 293 295 295 293 295 293 292 293 290 292 290 291 290 291 291 293 294 293 295 287 291 292 293 295 296 294 295 290 288 295 295 295 297 297 295 296 298 300 300 299 301 303 298 291 290 291 289 290 291 292 294 293 292 293 293 293 294 295 294 295 294 296 296 295 298 299 297 294 295 297 299 300 302 303 303 306 310 310 310 310 310 310 311 310
294 295 293 299 298 296 296 296 294 293 288 291 287 290 290 290 288 291 292 292 289 291 295 292 291 292 294 294 295 293 292 294 294 289 294 296 295 297 296 296 295 299 300 299 298 302 298 289 292 292 288 287 290 291 292 292 292 290 291 292 293 294 294 294 294 295 297 296 297 297 294 290 295 298 299 301 303 304 303 303 306 308 308 308 309 309 309 309
300 301 299 295 291 292 295 295 293 291 289 288 286 289 291 291 289 291 290 293 291 290 291 291 293 294 294 293 293 291 292 293 294 293 294 295 292 294 295 294 295 296 296 297 299 298 298 290 294 293 287 285 288 289 289 291 291 290 290 290 291 290 289 290 288 290 293 291 295 294 291 288 294 298 299 301 302 301 299 300 302 303 304 304 304 305 306 307
302 301 300 297 289 290 292 294 294 293 285 287 287 286 287 289 292 293 287 292 293 293 293 293 294 295 293 293 290 291 293 294 294 295 295 295 296 296 296 295 295 295 296 296 300 296 296 291 289 290 287 286 289 290 290 289 289 285 286 288 289 289 289 288 289 290 289 291 291 289 289 293 295 297 297 296 297 297 297 297 299 300 302 302 302 302 303 304
Wind_Speed
14 13 13 12 11 11 11 10 11 10 10 10 10 10 10 9 10 10 9 9 10 11 11 11 11 11 12 11 11 11 8 11 10 9 9 16 5 12 10 1 13 13 10 8 11 13 13 11 12 9 9 8 7 8 8 8 4 6 8 8 10 8 8 4 6 5 7 3 5 5 7 6 4 4 6 6 6 8 8 8 8 7 8 12 13 15 18 17
15 14 13 13 12 11 10 10 10 10 10 10 9 9 9 10 9 9 10 9 10 11 11 10 10 11 10 11 12 8 9 9 12 12 18 2 7 10 8 4 12 13 11 11 14 15 14 13 12 13 10 9 7 7 9 7 7 8 8 9 10 8 1 2 1 3 4 6 3 3 5 6 6 3 3 5 9 10 9 8 9 10 11 11 12 16 17 16
15 15 14 13 13 11 11 10 10 10 10 10 10 10 9 9 9 9 10 10 10 10 10 11 11 11 11 11 11 5 10 11 10 12 4 10 11 12 8 7 13 14 12 11 13 12 12 13 12 14 10 9 9 8 11 7 9 10 8 9 10 1 1 2 0 1 1 5 3 3 4 4 6 1 2 5 9 11 11 9 9 9 11 11 13 14 16 15
16 15 15 14 13 13 11 11 10 10 10 10 10 9 10 10 9 9 9 10 10 9 9 10 11 10 11 11 8 10 10 10 6 8 6 7 13 13 10 9 12 14 9 4 8 10 8 9 11 14 10 10 9 7 12 8 9 7 9 9 5 4 7 5 4 3 2 3 5 4 4 3 4 5 4 3 9 7 6 8 7 10 13 14 13 15 15 15
15 15 15 14 13 13 12 11 10 10 10 10 10 9 10 10 9 9 9 9 10 10 10 10 11 10 11 9 9 9 7 7 6 5 7 9 12 13 12 11 14 15 10 5 6 6 8 11 12 12 9 9 9 10 12 11 11 3 12 11 4 2 7 3 3 2 3 2 5 4 5 3 3 3 2 4 8 8 6 6 2 6 13 16 16 16 15 15
15 15 15 15 14 13 12 11 10 10 10 10 9 9 10 10 9 9 9 9 9 10 10 10 10 10 11 6 10 7 5 2 3 4 5 10 13 12 12 13 16 15 9 10 9 9 11 11 12 11 10 10 11 11 11 9 10 8 9 8 6 5 7 2 3 1 3 4 4 5 3 4 4 4 3 5 5 8 5 3 1 4 11 14 14 15 15 15
15 15 15 15 15 14 13 12 11 10 10 9 9 9 9 9 8 9 9 8 8 9 10 10 10 11 8 11 8 6 8 4 2 7 8 11 12 13 13 13 12 12 11 11 10 10 11 11 13 11 10 10 12 12 11 10 10 11 7 8 9 9 9 7 7 2 5 5 5 3 5 7 3 6 2 5 1 4 4 3 2 7 11 13 14 13 14 13
16 16 15 15 15 14 14 12 11 10 9 9 9 9 9 8 8 8 8 8 8 8 9 9 10 9 8 9 5 6 6 2 7 6 11 12 13 13 14 12 12 12 12 12 11 11 9 11 13 10 10 10 9 13 9 11 11 12 12 6 6 6 8 8 8 6 6 7 6 5 8 8 5 5 3 6 2 1 1 1 5 10 12 12 12 13 14 14
16 16 16 15 15 14 14 13 12 11 10 9 8 9 9 8 8 8 8 7 7 8 8 9 9 8 4 7 6 8 4 8 6 3 10 13 14 15 15 11 11 12 10 9 10 7 9 9 11 9 7 12 7 13 9 10 10 14 12 6 8 8 8 8 8 8 9 5 4 7 9 5 3 2 9 4 5 4 4 6 9 11 12 12 12 13 15 15
16 16 16 15 15 15 15 14 13 11 10 9 8 8 8 8 8 8 8 7 7 7 8 8 7 7 9 6 7 7 5 1 4 3 7 12 14 14 14 9 14 11 9 8 7 8 12 6 9 9 7 7 7 10 10 13 2 5 11 10 9 9 8 7 9 8 4 6 5 9 9 4 3 6 7 7 7 6 7 9 9 11 12 11 12 13 13 15
16 16 16 15 15 15 15 14 14 12 11 9 8 8 8 8 8 7 7 7 7 6 8 7 5 10 5 4 7 4 3 1 4 3 7 10 14 14 12 10 12 10 9 8 9 9 7 5 4 3 5 5 10 7 9 10 1 4 3 6 9 10 8 8 8 8 5 8 11 9 7 2 5 6 5 10 8 8 9 10 10 10 11 11 13 13 12 12
16 16 16 16 15 15 15 14 14 13 11 10 9 8 8 8 7 7 7 7 7 6 6 7 5 5 6 6 8 6 4 4 0 2 6 10 11 8 6 11 11 8 8 8 9 8 3 2 5 9 2 8 9 6 11 3 8 3 6 7 10 9 10 11 11 10 7 6 6 6 6 8 9 11 6 9 9 9 9 10 11 11 11 11 12 11 11 11
16 17 16 16 15 15 15 15 14 13 12 10 9 8 7 7 7 7 6 7 6 5 5 2 6 3 5 9 4 4 2 1 1 2 5 6 4 2 4 5 6 4 4 6 7 7 5 3 6 8 1 7 7 3 7 6 6 5 7 8 5 8 10 12 9 6 7 4 4 7 10 11 13 12 8 9 9 9 9 10 10 10 11 11 10 10 10 11
17 16 16 16 16 16 15 15 14 13 12 11 9 8 7 6 6 6 6 6 6 6 7 6 5 4 5 8 0 4 2 2 2 5 7 6 7 5 5 7 3 4 2 3 1 4 7 2 5 3 1 6 5 4 10 6 5 9 7 5 8 7 8 12 9 9 11 6 7 8 10 8 13 15 11 9 10 10 9 10 10 10 11 11 9 10 10 11
16 17 16 16 17 16 15 15 14 14 13 11 10 8 7 6 6 5 5 6 6 6 4 4 4 4 5 5 3 4 4 3 7 8 9 10 8 7 7 8 7 4 3 0 2 2 4 4 5 7 6 2 0 7 7 9 8 7 6 9 9 8 5 11 9 9 12 7 9 9 10 10 6 13 12 9 10 9 9 10 10 10 11 10 10 10 10 10
16 17 17 17 16 16 16 15 15 14 13 12 10 10 9 7 6 5 4 5 3 2 3 5 5 5 9 9 4 7 4 6 6 7 9 8 8 5 8 8 6 5 5 4 0 3 4 6 6 2 3 5 8 8 7 7 8 8 8 7 9 9 7 8 11 9 7 5 8 12 9 8 6 12 11 9 11 10 9 10 10 10 12 10 10 10 10 10
17 17 17 17 17 16 16 16 15 14 14 12 12 9 7 6 4 2 2 4 5 4 4 2 1 3 5 5 2 5 5 3 4 5 8 6 5 6 10 10 7 8 5 5 3 4 6 8 3 4 6 7 7 9 8 8 8 8 9 7 7 9 9 6 11 9 7 8 8 11 12 9 7 7 11 10 10 11 10 11 11 10 10 11 10 10 10 11
17 17 17 17 17 17 16 16 15 14 14 13 10 8 2 2 4 6 3 5 2 3 3 2 4 4 10 8 6 6 3 2 4 5 7 5 4 10 10 8 7 9 9 8 5 8 6 6 6 5 8 7 6 8 9 8 8 8 8 9 7 8 7 7 7 11 8 8 10 8 12 13 6 7 9 10 9 10 9 10 10 10 10 10 11 12 12 12
17 18 17 17 17 17 16 16 15 14 14 12 7 7 3 4 4 3 2 4 5 4 5 6 6 5 6 1 1 2 2 6 5 7 8 10 8 8 7 5 10 12 10 9 8 8 6 4 6 6 9 9 10 9 10 3 5 8 10 9 7 8 10 9 5 8 6 9 10 11 9 12 10 8 8 9 9 9 9 9 9 9 10 11 11 11 11 13
18 17 18 18 18 17 17 16 15 13 12 9 3 4 3 4 5 4 4 5 9 12 14 7 10 12 10 9 7 0 4 6 5 6 10 8 10 11 9 10 12 11 9 9 10 8 5 8 9 9 8 9 9 9 4 4 4 3 3 5 6 7 6 7 2 5 2 6 10 10 13 13 12 9 9 9 9 9 9 10 9 10 10 11 11 12 12 13
18 18 18 18 18 18 17 16 14 13 10 7 5 5 4 5 8 3 3 10 15 14 12 12 13 11 8 3 1 4 6 9 5 7 11 10 11 11 10 11 11 9 11 7 8 5 6 9 8 8 4 5 3 1 1 3 3 6 6 8 7 7 7 6 5 5 4 5 7 8 10 11 5 9 9 9 10 11 11 10 10 10 10 9 11 12 12 12
18 18 18 18 19 18 18 16 15 7 6 5 5 6 5 4 5 4 4 8 6 11 14 15 10 11 9 9 1 2 2 2 8 9 8 12 12 12 11 11 13 11 8 5 6 7 8 10 7 6 6 3 2 3 4 6 7 7 7 8 7 9 5 7 3 4 3 6 6 6 10 8 7 8 8 8 9 8 8 9 9 10 10 9 10 12 11 10
18 18 18 18 18 19 17 17 14 4 4 4 5 7 5 4 1 3 5 9 14 7 11 12 11 12 11 6 8 4 8 9 8 12 11 11 12 12 13 11 12 9 10 11 9 9 9 10 11 6 4 4 4 5 6 6 8 8 9 6 9 5 8 8 6 5 3 5 2 7 10 7 6 5 6 3 5 6 6 8 8 7 8 9 11 11 12 12
18 18 18 18 19 18 18 17 13 4 6 7 9 10 3 3 4 5 6 7 10 7 7 5 8 8 9 8 8 12 11 9 8 12 12 12 13 10 9 13 12 8 10 13 12 8 6 8 4 8 7 8 8 7 8 8 9 10 9 8 9 6 9 6 7 5 4 4 6 7 8 7 7 9 7 8 5 6 7 7 8 8 7 7 7 9 11 12
19 18 18 19 19 20 19 19 5 3 2 7 11 9 5 3 5 4 6 7 7 6 5 4 4 6 3 4 9 12 12 5 9 7 13 14 13 9 10 9 8 10 10 13 12 9 8 7 5 8 9 10 8 7 10 10 9 9 11 10 5 2 3 4 5 7 7 6 6 9 9 8 8 9 10 9 7 9 9 10 10 10 10 9 9 10 10 10
19 19 18 18 19 20 22 7 3 1 6 9 2 4 1 4 3 4 5 5 8 3 4 4 5 5 6 8 9 8 8 10 11 7 13 13 9 11 6 7 7 8 11 7 10 7 2 6 7 6 8 9 9 8 10 11 8 8 11 13 10 6 4 3 4 7 7 7 8 3 7 6 7 9 9 9 10 10 9 10 10 10 10 10 10 10 10 11
19 19 18 19 17 17 9 1 4 7 8 2 5 1 4 5 2 6 5 5 6 3 2 6 4 6 5 8 11 10 9 9 8 8 13 12 13 7 9 8 8 4 1 4 3 8 7 6 6 6 8 8 9 9 8 11 8 7 8 11 10 9 7 6 6 7 4 5 6 6 6 5 9 7 6 8 9 10 10 10 9 8 9 10 10 9 9 10
19 19 19 18 16 10 6 8 8 6 7 4 2 4 6 4 3 4 5 4 2 3 3 5 4 4 4 9 10 12 7 14 10 12 12 12 11 8 12 8 10 10 8 7 8 6 10 8 8 9 10 7 8 9 10 13 10 4 4 4 9 8 7 7 7 7 3 5 8 9 6 6 8 8 5 8 10 11 10 10 10 9 8 9 9 9 9 9
20 20 20 18 16 14 9 6 5 8 2 3 5 6 4 1 6 5 3 5 2 1 2 5 1 6 4 8 11 9 2 10 5 13 10 11 10 4 11 8 9 7 11 13 6 8 5 5 9 10 8 7 3 1 4 11 13 5 4 3 3 3 4 6 7 6 5 7 8 9 4 8 8 9 8 6 7 10 8 8 8 7 7 6 6 7 7 7
22 20 20 17 14 7 5 6 11 11 7 8 8 7 4 5 5 7 3 6 1 3 2 4 5 6 8 11 10 10 6 6 3 9 11 11 11 7 2 7 7 7 9 10 13 2 3 2 3 6 7 4 4 4 1 10 2 3 7 8 7 7 6 6 6 6 5 7 9 6 3 7 6 9 9 8 3 5 5 5 4 3 1 2 1 3 5 5
22 22 19 15 7 2 2 6 8 6 5 3 7 7 5 5 7 5 6 1 3 4 3 6 4 5 9 12 10 11 5 4 7 13 11 10 11 11 5 7 4 7 7 8 9 9 7 5 6 5 4 1 1 4 3 0 4 7 8 9 7 6 5 7 6 6 7 8 5 5 3 5 8 8 7 8 6 4 3 3 3 3 3 2 2 1 2 4
22 21 20 12 9 5 7 1 5 2 3 7 10 5 7 8 5 8 5 5 8 6 2 5 5 4 7 7 9 13 10 7 7 13 12 11 11 11 11 8 9 9 9 9 9 8 10 9 8 5 4 6 6 5 5 6 6 8 8 9 9 7 5 7 8 8 8 7 4 3 4 7 11 4 7 10 7 5 5 4 4 3 4 4 3 2 3 4
21 21 23 12 10 9 14 13 7 7 8 8 6 6 8 8 9 10 8 4 1 2 6 4 3 2 2 6 8 11 13 10 10 10 13 13 11 12 13 12 10 9 6 9 7 9 8 10 10 8 5 9 8 9 8 8 9 11 11 9 10 8 7 7 9 6 9 6 4 3 1 8 4 7 6 8 7 5 5 5 4 5 5 5 6 6 6 6
23 22 10 2 7 9 7 6 4 5 5 4 7 8 9 9 9 3 11 10 1 2 3 2 2 3 5 7 6 11 10 12 10 9 11 10 12 11 11 10 8 12 6 4 9 9 8 12 12 9 9 11 12 11 9 8 11 11 11 10 9 7 7 6 8 8 8 5 8 4 4 5 11 3 6 7 6 6 6 5 6 6 7 7 8 9 10 10
26 17 5 4 5 8 10 8 4 3 4 5 8 10 12 11 8 7 9 8 8 5 7 1 6 5 7 8 3 10 7 9 11 10 11 10 12 11 11 10 12 10 8 7 5 3 12 7 6 10 4 9 12 12 7 11 10 8 5 6 7 7 4 7 2 5 5 5 6 7 4 1 1 4 4 4 5 7 7 8 8 8 8 8 8 9 9 10
15 1 1 3 2 2 4 4 6 5 5 8 10 10 12 10 8 7 2 2 1 5 4 6 7 8 6 6 7 8 6 6 13 10 10 11 11 12 11 9 12 14 8 8 5 8 5 10 10 5 5 6 7 3 8 6 9 8 8 10 5 3 5 1 2 4 1 2 6 3 6 5 5 5 6 5 5 7 7 8 8 9 10 9 10 10 9 10
3 3 4 1 2 4 2 5 6 7 5 9 10 11 10 9 6 0 2 3 3 3 5 9 7 7 8 8 7 10 8 8 10 12 9 10 9 10 8 8 7 15 15 10 7 7 7 7 6 9 11 4 1 4 3 4 5 6 10 7 5 1 4 4 6 3 5 7 4 4 6 8 7 5 7 5 6 7 8 8 9 10 9 10 9 9 10 11
5 2 2 6 11 5 1 6 8 7 7 10 11 10 4 10 6 5 3 2 6 4 6 7 1 5 5 6 8 9 8 10 10 11 9 12 3 1 8 8 8 9 14 14 9 6 7 9 7 4 3 6 5 7 7 4 4 5 6 8 10 5 9 8 4 5 7 7 5 5 9 8 8 5 7 9 7 8 8 8 9 10 9 10 10 11 11 11
3 3 3 8 8 3 2 7 7 8 9 10 9 10 7 10 3 6 2 3 1 3 6 2 5 3 5 6 2 2 5 10 9 10 9 8 9 4 4 2 6 4 2 4 9 4 4 8 4 3 5 6 7 9 11 10 9 3 1 8 3 4 8 6 6 6 6 7 7 5 8 6 9 3 6 8 8 9 9 8 8 9 9 9 9 9 9 8
3 4 3 6 6 4 5 5 6 7 10 11 10 9 1 8 7 5 3 5 4 5 4 3 3 4 4 2 3 5 6 10 5 6 9 7 8 4 3 2 3 6 1 6 8 2 4 0 5 6 3 5 10 9 12 11 11 9 10 10 6 6 3 5 2 8 6 6 6 6 6 7 3 7 3 9 8 8 9 9 9 8 8 8 9 7 7 7
2 3 4 6 2 1 4 5 7 9 10 8 6 7 5 5 4 8 5 3 6 3 6 3 3 5 2 3 7 2 3 7 6 6 8 6 9 5 2 2 4 4 5 6 8 4 4 4 8 6 6 8 5 6 6 7 3 9 12 11 10 9 9 8 10 6 8 8 5 6 6 4 5 3 4 6 9 9 8 9 9 9 8 7 6 6 5 6
4 0 5 9 1 4 5 5 5 3 6 8 7 8 5 0 5 2 7 5 6 4 4 6 7 8 6 7 6 2 5 5 7 7 6 8 8 3 5 3 1 4 3 2 3 5 3 3 7 8 8 3 7 6 6 4 3 4 5 10 11 10 10 9 10 7 7 7 5 7 6 2 4 3 3 3 4 7 8 7 8 8 8 6 5 6 6 7
6 5 3 7 2 5 6 4 2 3 7 2 4 4 3 3 7 2 4 4 7 5 5 6 6 5 7 7 4 6 5 6 4 8 3 6 5 6 3 2 4 5 6 4 7 4 2 3 7 9 2 4 5 2 0 2 2 6 4 2 5 12 10 10 10 5 7 5 7 7 7 3 4 4 3 4 5 6 6 7 8 8 8 8 8 8 8 9
4 5 4 8 3 5 5 2 2 3 5 1 5 2 3 3 3 6 9 3 4 3 5 4 4 6 4 1 4 7 2 4 4 6 5 4 3 5 4 3 6 4 4 6 5 3 2 5 8 6 8 7 6 7 6 3 5 6 4 2 3 3 1 1 2 1 7 9 11 8 9 3 5 3 4 6 8 8 9 8 7 9 9 9 10 9 9 10
2 2 3 6 7 2 1 4 3 2 2 3 5 4 3 6 4 6 3 3 2 2 2 2 3 3 4 2 5 4 3 6 2 2 4 3 4 4 5 2 4 5 6 8 8 9 4 3 3 10 12 11 11 11 9 8 8 4 2 3 2 3 5 6 10 8 9 8 12 8 3 6 6 5 7 7 9 10 9 9 8 9 10 10 9 10 10 10
4 2 3 3 5 6 6 2 3 3 2 2 2 3 2 4 5 4 2 5 4 3 3 3 1 2 5 5 7 7 5 3 6 1 5 4 5 4 5 3 3 6 11 13 9 7 3 2 4 6 6 5 4 6 6 3 7 5 5 4 3 1 3 6 7 9 10 6 8 8 3 10 9 7 8 7 7 9 10 10 10 10 9 9 10 10 10 9
2 4 3 4 2 5 6 7 7 6 2 5 1 4 0 1 2 5 5 1 5 2 3 5 2 4 3 6 6 4 3 2 4 3 2 2 4 4 5 6 11 13 13 8 10 8 4 1 5 6 7 6 6 6 7 4 7 7 6 5 4 4 2 5 6 6 6 5 9 7 13 12 9 8 7 8 7 7 7 7 9 10 10 10 9 9 11 11
2 1 2 3 4 5 5 7 9 5 8 3 4 3 2 2 3 2 4 5 2 4 2 3 5 2 2 3 4 4 4 4 3 2 3 3 7 7 7 5 5 4 5 7 7 5 8 4 2 1 4 6 7 8 6 8 9 8 8 8 8 7 7 3 4 7 8 3 2 8 10 11 9 7 7 7 5 5 5 6 6 8 8 9 10 11 11 11
3 3 4 4 1 5 6 5 6 7 10 9 4 9 9 8 9 7 5 2 3 5 6 2 7 7 2 1 3 3 1 5 2 4 3 2 2 4 6 8 7 5 7 9 6 5 6 2 5 8 5 3 7 8 8 6 5 7 9 8 7 8 8 8 8 9 9 7 7 9 14 12 7 6 6 6 5 5 5 4 6 7 8 9 9 10 10 10
4 3 3 2 5 6 5 4 5 7 8 11 3 10 8 9 11 9 8 8 3 7 7 7 8 8 9 7 5 5 6 8 6 3 4 3 4 5 5 5 2 4 6 7 7 5 4 3 9 10 5 3 3 4 6 7 5 5 7 8 8 7 5 8 7 7 4 8 8 10 11 9 6 5 7 5 4 6 7 9 8 7 8 7 8 8 9 10
2 2 3 3 4 5 3 4 3 5 5 7 7 8 8 11 8 6 10 9 11 7 8 7 6 4 8 11 11 10 8 5 5 6 4 5 3 4 3 4 5 2 3 6 4 5 2 6 8 8 6 4 3 2 3 4 4 5 4 5 6 8 4 6 3 5 5 4 5 6 6 5 5 6 7 8 8 9 11 10 9 9 9 7 8 9 10 11
1 1 3 4 4 5 4 6 5 3 6 5 3 4 4 10 10 6 3 8 10 10 8 8 7 3 8 10 11 10 9 7 5 5 4 2 3 2 3 4 4 3 1 2 1 7 7 9 7 7 6 6 6 3 4 2 2 3 6 3 3 3 4 5 6 7 5 5 1 1 5 6 7 6 9 10 10 10 11 9 9 11 10 9 10 10 10 11
Wind_Direction
351 347 341 337 329 321 318 317 313 310 308 307 309 308 308 310 311 313 316 316 315 319 319 319 317 317 311 313 314 320 330 297 294 268 244 248 287 127 162 346 174 197 220 190 161 165 172 179 185 168 193 188 193 214 165 207 192 210 215 230 226 237 219 182 219 193 49 133 70 40 15 348 89 101 94 148 118 118 123 109 111 103 87 85 108 121 126 136
351 350 345 340 334 326 318 315 312 308 306 304 303 305 305 308 308 308 310 314 316 315 317 320 315 311 313 311 311 341 310 292 281 268 246 137 140 148 179 212 157 183 213 185 171 181 176 181 181 179 186 199 154 197 157 186 201 210 218 229 239 219 181 24 26 15 237 61 349 41 23 346 50 273 120 215 127 144 143 123 126 107 105 108 120 127 134 140
352 351 348 344 337 332 326 317 311 308 303 303 302 304 304 303 305 308 307 311 313 318 315 315 319 313 313 314 316 310 297 292 274 253 253 201 159 168 177 144 163 178 205 174 187 186 190 183 174 186 189 199 180 180 194 167 201 219 247 225 236 301 240 219 13 147 331 358 337 347 19 338 47 355 85 229 150 165 157 144 158 144 134 139 139 143 141 145
351 351 350 347 343 337 330 322 313 309 303 300 302 303 303 299 302 305 307 307 313 315 317 313 314 317 312 309 338 309 289 282 246 113 79 152 158 168 170 160 169 188 214 214 188 205 206 189 180 196 189 219 176 211 189 165 208 181 230 234 245 172 235 197 199 229 314 316 317 322 330 255 48 358 290 102 171 187 153 151 165 159 152 148 155 153 150 151
349 350 349 347 347 340 334 324 318 311 305 298 298 301 298 298 299 302 304 304 309 312 313 315 315 316 313 315 305 289 283 263 102 74 78 141 156 164 164 167 174 190 204 169 182 201 197 186 184 201 203 205 179 192 208 177 220 196 225 240 280 185 238 132 188 104 285 341 294 295 274 21 339 258 302 236 201 153 125 121 73 150 150 153 161 162 158 156
349 348 349 348 348 346 338 330 320 314 308 305 300 295 292 298 298 299 300 302 306 310 312 315 315 315 309 310 295 266 269 325 61 65 59 142 156 156 163 165 178 189 198 183 183 175 184 182 187 194 201 212 188 199 193 198 189 225 208 238 228 233 247 173 235 223 286 261 260 269 351 318 269 287 262 285 279 66 52 28 110 154 149 151 158 160 160 159
349 348 348 348 348 346 344 336 327 319 310 301 298 293 293 295 297 294 298 302 304 308 313 313 314 311 326 289 267 258 251 311 147 60 115 151 151 155 152 159 174 187 191 179 184 177 187 181 198 195 205 209 195 209 183 188 190 237 238 191 217 234 237 247 253 229 253 262 267 306 307 278 270 244 94 268 340 30 17 321 211 148 144 145 155 163 159 158
348 348 348 348 347 346 346 339 331 321 314 309 302 294 296 296 294 294 298 301 304 306 312 311 311 314 338 302 248 232 228 197 55 66 127 140 156 153 155 157 175 181 185 191 180 192 186 194 200 194 215 208 178 210 164 200 200 220 239 184 219 212 233 245 250 248 254 253 264 263 267 256 248 278 243 235 146 49 26 156 164 142 142 149 155 161 158 161
349 347 348 347 345 344 345 343 334 328 320 313 304 300 296 296 290 297 299 301 301 300 307 311 309 318 260 276 285 287 204 43 16 49 145 154 159 159 165 159 184 180 191 191 199 198 203 192 210 195 206 210 170 205 166 205 207 225 234 221 222 226 233 234 239 242 244 244 229 246 246 236 249 275 249 192 131 110 117 144 143 141 143 155 160 161 166 167
347 347 347 346 344 344 343 342 340 332 325 314 308 301 297 293 295 295 296 295 296 302 299 308 313 313 287 279 272 265 83 1 54 96 152 159 157 165 184 168 176 185 187 188 195 203 211 174 223 184 290 220 176 206 186 211 359 192 222 230 239 238 239 233 245 239 233 248 209 240 237 185 148 213 204 144 134 136 143 138 143 148 151 155 162 165 169 175
348 346 346 344 344 344 342 341 342 338 328 322 312 305 299 299 297 292 289 289 292 305 299 297 351 295 272 273 292 282 92 177 30 95 152 163 163 174 184 175 184 188 196 181 207 204 203 239 187 161 245 198 190 179 198 211 252 211 219 215 233 240 234 239 237 243 225 229 215 234 246 201 181 211 241 128 132 151 145 143 147 153 153 160 165 171 173 180
346 345 344 343 343 342 342 340 341 341 331 323 318 306 302 300 295 291 286 293 290 298 305 294 298 283 279 264 257 283 95 69 350 103 155 168 176 185 197 182 188 198 200 194 211 199 186 238 209 201 228 135 198 146 208 163 221 208 217 228 217 219 232 218 228 222 195 218 177 198 219 209 183 220 179 127 137 149 146 145 151 152 155 162 162 165 174 176
345 345 343 342 342 342 340 340 338 340 336 324 318 310 303 298 293 289 289 277 268 275 267 335 264 276 291 272 242 82 168 32 131 179 158 181 172 174 183 191 215 249 237 230 196 191 197 240 237 222 204 216 161 216 94 187 194 217 217 251 216 217 227 210 207 195 210 156 174 173 232 220 200 208 149 139 151 149 150 152 155 155 160 157 156 171 177 181
345 343 343 341 341 340 341 339 337 337 338 326 318 313 303 294 291 286 277 270 278 260 262 263 262 262 271 268 251 136 188 203 181 196 183 168 183 160 179 185 197 213 229 283 359 186 196 232 247 304 301 243 164 119 185 174 185 217 195 222 246 227 227 172 192 180 220 132 193 206 247 235 200 179 148 152 159 166 158 155 160 157 165 161 165 171 178 189
343 343 341 340 340 339 339 338 335 335 337 331 317 315 302 285 271 269 266 262 249 259 247 248 247 264 229 268 118 82 122 210 205 201 180 180 181 150 174 173 186 193 192 166 158 185 206 205 248 223 183 190 291 197 180 198 191 212 198 218 217 236 180 149 175 176 215 147 193 208 242 251 157 149 148 155 165 174 162 159 159 165 163 167 176 172 183 190
342 341 340 339 339 339 337 337 335 334 332 331 320 306 297 275 260 250 256 267 341 250 212 237 213 251 296 272 111 136 192 209 194 188 176 199 191 189 155 165 154 172 199 169 306 160 195 206 244 335 164 173 209 205 180 191 195 201 232 218 206 204 214 171 177 196 235 126 178 218 242 216 185 139 149 162 173 178 169 162 163 164 164 168 182 178 183 186
341 340 339 337 338 338 338 335 334 332 332 330 321 308 292 267 241 228 224 225 214 218 218 283 93 222 270 69 203 212 151 145 86 162 173 206 211 141 151 150 167 163 177 148 165 179 159 221 151 215 241 216 195 206 202 202 195 198 205 238 217 205 209 225 131 190 176 222 189 204 240 252 85 155 153 169 183 184 177 168 163 169 176 176 179 181 181 187
339 338 337 336 336 336 336 334 333 331 331 330 321 320 313 171 194 179 199 209 190 222 231 284 264 267 236 246 244 138 57 93 152 125 166 160 186 164 159 165 152 158 160 157 168 206 170 213 197 217 176 204 199 208 218 200 203 195 186 218 194 229 232 227 183 152 187 185 242 198 228 241 188 145 171 170 184 192 183 171 164 170 175 182 191 191 195 199
338 337 334 335 333 334 335 333 330 331 331 324 283 294 176 203 197 231 201 173 190 183 207 165 200 219 48 152 343 238 224 83 122 168 149 163 171 166 159 154 161 155 170 188 155 210 173 209 207 221 196 190 196 212 213 271 216 210 197 208 216 200 195 223 163 116 218 207 213 221 224 226 196 164 166 173 178 192 184 170 166 172 176 187 195 198 199 202
337 335 334 332 332 331 332 330 329 327 336 309 229 224 203 206 192 183 187 214 235 267 289 285 211 278 283 257 232 46 84 170 194 196 153 160 155 164 162 166 162 194 170 202 146 207 179 205 194 205 205 190 200 219 319 40 335 14 231 244 218 221 184 190 100 117 176 246 233 221 225 230 207 174 166 169 171 188 189 181 181 177 180 188 196 201 202 204
336 335 332 330 329 329 328 328 326 323 325 300 279 256 284 340 315 343 300 250 233 247 257 262 254 256 264 15 93 215 200 171 234 156 174 171 163 165 150 172 173 189 195 198 169 120 226 225 209 209 202 182 177 55 251 256 268 233 222 221 207 212 215 157 147 150 171 245 211 212 226 224 178 158 163 169 181 189 191 188 186 186 182 181 197 202 203 201
336 333 331 329 326 327 325 325 323 340 301 272 260 256 304 328 4 9 295 301 276 255 237 252 260 252 246 239 193 51 315 256 184 156 145 190 171 203 149 199 179 198 159 162 152 170 212 222 207 197 83 83 83 192 210 232 228 223 232 206 228 198 220 101 158 171 172 223 234 180 209 183 162 167 159 179 189 187 192 195 192 192 184 180 192 203 203 200
334 332 329 328 326 323 325 318 326 331 256 210 224 243 276 52 9 331 275 280 281 252 236 238 229 232 233 222 223 188 238 224 191 166 170 203 172 223 156 204 187 190 165 196 199 191 213 220 217 157 141 161 171 201 212 223 235 219 213 222 213 170 200 178 164 162 170 236 295 188 195 138 135 142 145 152 218 192 185 197 195 203 193 194 190 195 202 204
333 330 328 327 326 323 319 321 309 235 219 243 269 260 318 318 317 302 259 279 302 288 233 224 231 232 226 209 179 194 210 210 232 173 163 191 187 196 192 202 193 195 194 196 219 213 213 63 56 158 178 209 203 195 210 216 209 215 234 218 216 159 212 305 146 147 141 182 254 182 187 163 169 173 180 174 177 192 197 203 211 195 210 199 198 190 202 206
332 330 328 327 326 323 318 315 268 212 221 254 253 257 255 286 310 277 268 275 236 225 133 188 217 227 183 95 145 190 203 215 217 168 167 196 178 169 205 192 221 204 209 196 220 239 244 103 137 185 189 212 215 201 212 216 214 196 214 238 260 133 237 142 142 175 195 170 191 216 180 185 163 186 191 162 179 206 199 203 202 203 197 196 199 201 201 209
330 328 328 326 326 326 309 286 142 337 292 270 299 136 213 308 282 249 260 273 287 120 183 168 192 132 142 174 169 194 166 218 199 180 170 201 173 204 139 205 214 206 201 186 217 237 247 121 192 179 189 203 215 226 194 216 224 200 189 212 230 233 228 250 191 219 210 212 154 233 246 161 160 180 179 170 187 197 194 210 204 197 199 200 201 200 203 205
329 326 326 327 326 331 307 91 18 292 278 173 107 15 323 302 261 210 257 235 254 71 304 73 209 97 251 151 175 157 186 182 137 156 177 183 193 187 208 175 184 304 133 180 218 220 214 176 179 213 216 221 219 220 188 210 229 199 102 195 208 213 218 215 233 237 231 52 117 233 250 207 175 156 163 174 188 194 196 201 203 196 196 202 202 198 199 204
325 325 324 324 322 317 290 310 300 260 267 45 353 348 322 310 184 227 257 288 234 150 157 150 19 144 257 160 187 195 29 123 163 173 189 174 198 168 241 188 199 192 169 192 220 96 186 180 203 199 217 219 209 212 169 204 226 87 119 186 200 209 208 218 225 222 241 221 200 202 216 229 197 126 145 174 186 192 191 198 190 193 191 198 201 201 199 198
324 323 323 319 317 296 269 248 277 259 348 34 338 327 338 211 216 252 279 269 100 248 28 127 154 180 140 161 196 229 246 195 246 144 168 177 210 265 207 218 216 200 180 207 227 122 183 218 203 215 211 205 184 66 198 186 224 118 136 130 137 186 204 228 226 224 189 220 218 194 212 242 193 151 166 177 204 174 175 176 177 180 188 193 196 197 196 187
323 323 321 321 311 243 218 229 238 245 301 318 316 313 290 205 210 226 208 251 57 157 216 86 212 145 156 169 194 195 224 155 90 147 164 180 177 220 345 344 214 194 198 216 255 8 71 94 345 246 224 349 45 64 288 210 296 114 178 176 169 188 194 207 244 227 213 232 226 168 157 255 218 167 187 178 117 71 121 142 117 113 128 200 201 218 188 185
322 319 317 312 280 301 231 246 236 250 266 313 309 288 239 213 229 238 207 67 284 100 163 166 150 160 174 185 185 192 218 154 138 159 160 182 177 211 193 195 223 222 215 215 231 226 214 178 211 199 255 115 202 139 117 231 189 199 189 199 185 186 184 210 206 209 226 226 152 140 210 221 237 174 165 82 96 77 34 77 75 55 50 53 73 207 195 162
320 315 309 294 258 254 225 304 57 352 8 330 313 252 205 207 215 223 209 107 256 133 235 109 132 163 183 197 215 181 193 173 156 179 172 182 178 194 190 215 171 196 208 200 209 202 220 219 220 173 182 217 199 196 142 177 181 216 206 208 207 189 202 207 191 212 220 238 114 120 199 216 231 39 92 99 78 75 39 17 20 12 23 45 68 92 99 116
320 313 308 273 234 222 236 265 302 310 314 308 291 225 208 219 221 210 237 197 188 350 121 300 128 207 209 203 212 195 198 209 160 196 191 181 199 196 197 221 176 218 215 184 217 178 210 220 207 211 180 211 235 213 154 185 189 204 208 203 215 204 207 221 205 214 222 119 118 167 75 239 239 129 72 82 72 67 65 61 48 43 51 68 89 103 116 133
318 313 302 187 209 218 244 242 259 294 299 245 224 199 224 221 225 190 232 220 104 146 339 287 297 250 216 229 175 185 187 217 181 184 194 182 203 198 191 215 222 203 263 150 219 189 207 189 209 196 212 171 214 240 190 202 183 203 213 216 224 238 218 212 227 214 223 229 140 132 201 218 209 111 73 66 82 86 91 96 93 91 90 89 89 98 100 100
313 298 260 223 223 233 234 239 235 239 268 222 209 207 205 215 224 216 222 229 233 254 265 127 268 266 201 226 166 199 238 186 205 193 198 199 198 212 195 198 202 236 214 228 182 241 228 242 161 183 29 169 209 217 253 210 200 202 240 254 235 239 225 247 342 306 246 201 167 166 227 4 247 127 89 96 90 86 94 100 106 100 100 100 101 98 99 103
298 106 204 207 248 169 212 218 202 205 229 210 206 209 216 200 214 202 244 340 296 251 253 232 251 239 231 212 159 197 164 274 177 212 206 209 200 208 204 200 198 203 212 225 152 217 194 233 124 167 183 214 220 181 213 235 219 162 208 215 227 353 246 138 172 95 247 270 240 150 214 195 106 176 131 129 116 96 98 102 102 102 102 101 98 102 101 110
313 284 188 51 357 355 266 193 174 186 215 220 210 220 216 213 243 174 98 219 36 286 236 249 188 232 220 213 198 189 166 219 175 202 207 199 213 221 200 207 208 198 220 232 208 248 254 216 133 179 194 164 284 252 195 203 292 162 216 204 95 39 311 236 243 165 233 234 209 167 215 210 199 200 152 154 142 106 101 98 100 103 104 100 95 95 103 104
306 291 282 11 355 346 203 173 176 187 209 214 222 236 207 237 179 252 83 204 203 213 261 236 163 274 228 243 206 189 155 218 165 198 220 172 232 132 207 218 188 227 221 220 257 182 228 245 164 203 177 118 160 197 193 188 262 252 267 135 205 179 211 198 249 212 220 221 227 194 213 228 213 177 166 177 169 131 118 115 116 111 106 104 104 105 106 109
256 251 171 13 2 3 186 175 200 185 198 213 221 221 215 236 73 216 162 349 326 312 246 222 301 155 301 225 260 226 176 221 166 203 215 170 220 150 199 211 164 203 249 223 224 201 202 249 164 148 207 146 185 203 214 190 186 217 264 195 224 254 230 207 210 245 238 227 229 192 202 228 215 197 162 169 161 140 135 135 121 115 117 114 119 120 118 118
256 230 105 21 35 53 117 188 199 191 207 214 213 228 161 225 215 210 219 250 226 237 239 293 202 284 219 297 295 235 185 247 199 217 228 151 196 131 173 199 128 144 212 214 235 222 222 202 256 128 146 177 211 198 221 200 192 191 214 216 187 225 22 289 209 240 235 243 225 225 213 220 109 35 52 138 139 144 150 141 134 130 125 125 124 134 124 124
262 283 71 19 31 106 241 242 199 195 207 218 251 250 182 230 205 215 224 217 261 250 302 263 275 239 327 287 211 180 240 225 225 229 223 177 210 158 116 133 167 113 156 162 208 194 233 197 236 175 187 216 212 38 1 341 297 226 212 221 215 208 211 211 226 193 241 244 234 232 230 135 62 21 39 82 123 166 151 140 134 136 133 130 131 131 139 131
290 268 37 11 78 229 281 203 192 225 231 218 228 223 222 111 258 211 202 180 245 250 167 272 260 275 267 257 281 281 274 247 224 236 193 244 179 285 106 335 198 121 184 112 115 50 5 308 250 228 217 245 73 72 44 358 298 338 277 233 223 227 231 227 244 198 210 230 279 251 263 138 47 19 19 66 108 144 137 134 127 128 131 132 125 129 136 138
32 57 64 6 109 237 269 246 170 206 221 222 25 245 244 234 248 226 235 171 224 211 250 233 247 241 237 263 267 264 259 252 257 235 214 203 78 59 88 187 199 162 123 113 93 39 1 244 236 234 161 153 148 115 10 337 297 218 202 338 222 229 228 246 248 217 209 185 216 220 236 134 74 47 62 87 104 108 116 119 124 118 127 127 130 128 133 125
42 44 61 23 359 212 267 262 205 199 209 176 236 246 162 303 238 217 223 141 277 182 244 240 210 239 297 238 257 260 187 254 208 254 210 212 126 53 63 161 223 190 208 158 150 111 124 240 263 225 218 197 205 192 188 141 218 232 223 135 349 347 309 193 280 181 247 214 228 227 232 148 90 66 86 115 120 120 117 113 117 122 125 126 122 120 124 128
250 169 57 43 23 6 1 9 317 288 227 230 224 190 183 185 37 5 332 78 32 359 270 218 347 12 241 236 259 254 246 270 283 134 359 149 93 99 71 39 244 208 119 98 110 140 122 353 294 234 217 210 207 211 209 195 193 115 82 102 51 254 206 205 229 220 241 204 223 233 212 83 103 98 89 112 112 107 107 112 118 121 128 127 127 127 122 119
7 4 6 78 38 59 78 39 352 299 256 214 175 18 299 191 126 61 11 84 23 77 19 325 217 270 253 215 224 228 211 194 254 158 209 169 140 92 47 65 74 135 124 123 119 105 83 92 21 11 339 305 342 11 28 2 139 166 115 115 88 43 311 285 261 241 234 187 212 225 178 140 134 117 106 98 122 117 126 130 130 128 124 122 129 127 122 117
57 26 350 6 318 52 51 36 28 4 3 314 235 350 56 222 169 114 3 194 46 23 64 27 354 237 209 227 223 197 200 187 174 175 64 122 88 96 94 91 90 93 124 121 117 87 102 112 24 359 31 23 1 8 16 34 112 77 106 75 56 29 351 259 242 258 300 212 229 121 135 136 123 108 118 125 121 114 107 123 130 130 134 130 120 119 121 122
49 50 355 3 330 21 358 32 17 42 41 23 61 325 42 100 85 89 66 62 90 28 282 93 31 27 273 263 228 207 160 151 115 110 130 118 140 143 131 115 119 102 174 131 152 138 154 165 127 357 3 17 25 32 29 61 63 72 70 60 52 39 40 56 40 11 344 272 269 121 129 115 105 90 109 108 114 117 112 104 114 128 132 133 138 133 127 121
54 90 61 295 323 45 31 32 18 46 45 14 77 32 44 48 58 42 9 351 65 42 14 79 35 32 41 167 265 143 38 189 121 73 60 46 61 182 142 133 96 153 147 138 149 144 141 138 159 151 136 36 25 27 20 47 61 61 44 42 38 48 57 61 55 35 41 66 63 91 91 86 68 68 67 68 64 74 75 82 131 139 136 132 131 130 123 118
44 323 83 78 67 62 42 61 45 41 53 6 45 28 37 45 50 37 37 18 58 42 13 71 50 47 56 66 66 82 47 31 47 94 53 343 132 16 76 25 89 145 166 143 148 161 234 132 160 155 141 118 36 28 36 33 25 29 27 19 8 355 62 61 73 49 68 80 84 98 92 84 64 53 78 78 90 96 79 74 89 109 120 120 128 122 108 100
34 5 323 313 65 17 36 60 59 57 56 13 29 6 20 27 28 4 60 38 41 30 8 18 9 49 68 70 65 60 28 13 13 41 14 5 46 19 336 94 349 161 154 153 158 160 196 135 170 171 170 163 175 102 78 49 26 358 345 8 5 0 15 27 39 355 352 81 110 130 117 95 94 99 89 83 83 77 74 67 65 66 58 68 82 84 86 88
246 171 263 291 64 340 17 60 59 63 50 23 356 349 6 359 358 357 91 38 40 34 19 358 351 326 61 47 36 12 345 330 340 338 347 352 336 26 51 37 15 14 340 163 158 182 155 148 171 182 202 176 150 137 115 86 349 270 233 112 73 83 78 101 82 41 24 334 239 218 85 95 109 111 103 84 74 66 60 55 67 72 73 61 68 68 75 77